Weather History for Montgomery, NY

Change the Weather History Date:

Monday, December 12, 2011

  Actual Average (KPOU) Record (KPOU)
Temperature  
Mean Temperature 30 °F 32 °F  
Max Temperature 41 °F 41 °F 66 °F (1979)
Min Temperature 18 °F 23 °F -3 °F (1962)
Degree Days  
Heating Degree Days 36 33  
Month to date heating degree days 368  
Since 1 July heating degree days 1646  
Cooling Degree Days 0 0  
Month to date cooling degree days 0  
Year to date cooling degree days 672  
Moisture  
Dew Point 19 °F    
Average Humidity 72    
Maximum Humidity 89    
Minimum Humidity 43    
Precipitation  
Precipitation 0.00 in 0.11 in 1.50 in (2008)
Month to date precipitation 1.44  
Year to date precipitation 44.44  
Sea Level Pressure  
Sea Level Pressure 30.52 in    
Wind  
Wind Speed 3 mph (SSW)    
Max Wind Speed 9 mph    
Max Gust Speed -    
Visibility 10 miles    
Events      
T = Trace of Precipitation, MM = Missing Value Source: NWS Daily Summary

Daily Weather History Graph

Daily Weather History Graph

Search for Another Location

Airport:

Trip Planner

Search our weather history database for the weather conditions in past years. The results will help you decide how hot, cold, wet, or windy it might be!

Date:

Astronomy

Dec. 12, 2011 Rise Set
Actual Time 7:14 AM EST 4:27 PM EST
Civil Twilight 6:42 AM EST 4:58 PM EST
Nautical Twilight 6:07 AM EST 5:33 PM EST
Astronomical Twilight 5:34 AM EST 6:07 PM EST
Moon 6:36 PM EST (12/12) 8:43 AM EST (12/12)
Length of Visible Light 10h 15m
Length of Day
9h 13m
Waning Gibbous, 96% of the Moon is Illuminated
Dec 12
Waning Gibbous
Dec 17
Last Quarter
Dec 24
New
Jan 1
First Quarter
Jan 9
Full

Hourly Weather History & Observations

Time (EST) Temp. Windchill Dew Point Humidity Pressure Visibility Wind Dir Wind Speed Gust Speed Precip Events Conditions
12:54 AM 24.1 °F - 19.9 °F 84% 30.60 in 10.0 mi Calm Calm - N/A   Clear
1:54 AM 24.1 °F - 19.9 °F 84% 30.59 in 10.0 mi Calm Calm - N/A   Clear
2:54 AM 21.9 °F 14.5 °F 19.0 °F 89% 30.58 in 10.0 mi South 5.8 mph - N/A   Clear
3:54 AM 23.0 °F - 19.0 °F 85% 30.58 in 10.0 mi Calm Calm - N/A   Clear
4:54 AM 21.9 °F - 18.0 °F 85% 30.57 in 10.0 mi Calm Calm - N/A   Clear
5:54 AM 21.0 °F 16.2 °F 18.0 °F 88% 30.57 in 10.0 mi South 3.5 mph - N/A   Clear
6:54 AM 18.0 °F 12.7 °F 15.1 °F 88% 30.57 in 9.0 mi South 3.5 mph - N/A   Clear
7:54 AM 21.9 °F 14.5 °F 18.0 °F 85% 30.56 in 9.0 mi SSW 5.8 mph - N/A   Clear
9:54 AM 32.0 °F 25.6 °F 21.9 °F 66% 30.56 in 10.0 mi SW 6.9 mph - N/A   Clear
10:54 AM 35.1 °F 29.3 °F 21.9 °F 59% 30.54 in 10.0 mi SSW 6.9 mph - N/A   Clear
11:54 AM 37.9 °F 32.7 °F 19.9 °F 48% 30.52 in 10.0 mi South 6.9 mph - N/A   Clear
12:54 PM 39.9 °F 33.9 °F 19.0 °F 43% 30.51 in 10.0 mi SSW 9.2 mph - N/A   Clear
1:54 PM 41.0 °F 35.2 °F 19.9 °F 43% 30.50 in 10.0 mi SSW 9.2 mph - N/A   Clear
3:54 PM 37.0 °F 32.4 °F 19.0 °F 48% 30.48 in 10.0 mi WSW 5.8 mph - N/A   Clear
4:54 PM 34.0 °F 31.0 °F 19.9 °F 56% 30.48 in 10.0 mi SW 3.5 mph - N/A   Clear
6:54 PM 25.0 °F - 19.9 °F 81% 30.46 in 10.0 mi Calm Calm - N/A   Clear
7:54 PM 24.1 °F 19.7 °F 19.9 °F 84% 30.45 in 10.0 mi SW 3.5 mph - N/A   Clear
8:54 PM 23.0 °F - 18.0 °F 81% 30.44 in 10.0 mi Calm Calm - N/A   Clear
9:54 PM 25.0 °F 20.7 °F 18.0 °F 75% 30.43 in 10.0 mi South 3.5 mph - N/A   Clear
11:54 PM 25.0 °F 17.1 °F 18.0 °F 75% 30.42 in 10.0 mi SSW 6.9 mph - N/A   Clear